EW6133 Weather Reports


time (UTC)temp
F
wind
direction
speed
knots
gust
knots
rain 1hr
in
rain 24hr
in
rain mn
in
humidity
%
barometer
mb
20260510140536 54 324 1.7 7.0 0.00 0.00 0.00 65 1015.8
20260510135746 54 263 1.7 7.8 0.00 0.00 0.00 67 1015.8
20260510135237 54 351 1.7 7.8 0.00 0.00 0.00 66 1015.7
20260510135022 54 0 0.9 6.1 0.00 0.00 0.00 66 1015.7
20260510134234 54 26 0.9 3.5 0.00 0.00 0.00 66 1015.8
20260510133736 54 234 0.9 5.2 0.00 0.00 0.00 66 1015.7
20260510133234 55 329 0.9 5.2 0.00 0.00 0.00 66 1015.9
20260510132732 55 188 0.9 3.5 0.00 0.00 0.00 66 1015.9
20260510132515 55 22 1.7 3.5 0.00 0.00 0.00 66 1015.9
20260510132014 55 55 1.7 3.5 0.00 0.00 0.00 66 1015.9
20260510131236 55 5 0.9 7.8 0.00 0.00 0.00 66 1015.9
20260510130732 55 5 0.9 7.8 0.00 0.00 0.00 66 1016.0
20260510130234 54 19 0.9 3.5 0.00 0.00 0.00 68 1016.0
20260510125732 54 350 0.9 7.0 0.00 0.00 0.00 69 1016.0
20260510125231 54 236 0.9 7.0 0.00 0.00 0.00 69 1016.1
20260510124731 54 298 0.9 3.5 0.00 0.00 0.00 69 1016.1
20260510124232 54 76 0.9 5.2 0.00 0.00 0.00 69 1016.1
20260510123758 53 11 1.7 7.0 0.00 0.00 0.00 69 1016.2
20260510123750 54 78 1.7 7.0 0.00 0.00 0.00 70 1016.2
20260510123017 53 267 0.9 4.3 0.00 0.00 0.00 70 1016.3
20260510122231 53 19 0.9 4.3 0.00 0.00 0.00 71 1016.3
20260510121733 53 178 0.9 7.0 0.00 0.00 0.00 71 1016.4
20260510121232 53 242 0.9 7.0 0.00 0.00 0.00 71 1016.4
20260510120825 53 227 0.9 5.2 0.00 0.00 0.00 72 1016.5
20260510120811 53 46 0.9 7.8 0.00 0.00 0.00 72 1016.5
20260510120534 53 249 1.7 7.8 0.00 0.00 0.00 72 1016.5
20260510115230 53 259 0.9 5.2 0.00 0.00 0.00 72 1016.6
20260510114731 53 345 1.7 6.1 0.00 0.00 0.00 72 1016.6
20260510114231 53 91 1.7 7.0 0.00 0.00 0.00 72 1016.7
20260510113734 53 340 0.9 7.0 0.00 0.00 0.00 73 1016.7
20260510113233 53 36 0.9 4.3 0.00 0.00 0.00 74 1016.8
20260510112733 53 271 0.9 5.2 0.00 0.00 0.00 74 1016.9
20260510112231 53 31 0.9 5.2 0.00 0.00 0.00 74 1017.0
20260510111731 53 38 0.9 4.3 0.00 0.00 0.00 75 1017.0
20260510111232 53 190 0.9 4.3 0.00 0.00 0.00 76 1017.0
20260510110732 53 23 0.9 4.3 0.00 0.00 0.00 76 1017.0
20260510110232 53 254 1.7 5.2 0.00 0.00 0.00 75 1017.1
20260510110011 53 213 0.9 5.2 0.00 0.00 0.00 76 1017.0
20260510105506 53 244 0.9 3.5 0.00 0.00 0.00 76 1017.1
20260510105000 53 263 0.9 3.5 0.00 0.00 0.00 77 1017.0
20260510104211 53 215 0.9 1.7 0.00 0.00 0.00 78 1017.1
20260510103704 53 136 0.9 2.6 0.00 0.00 0.00 78 1017.1
20260510103204 53 9 0.9 2.6 0.00 0.00 0.00 78 1017.1
20260510102704 53 355 1.7 5.2 0.00 0.00 0.00 78 1017.1
20260510102202 53 214 1.7 5.2 0.00 0.00 0.00 77 1017.0
20260510101943 53 196 0.9 3.5 0.00 0.00 0.00 77 1017.1
20260510101206 54 265 0.9 6.1 0.00 0.00 0.00 77 1017.1
20260510100701 54 151 0.9 6.1 0.00 0.00 0.00 77 1017.1
20260510100202 54 30 0.9 5.2 0.00 0.00 0.00 77 1017.1
20260510095703 54 345 1.7 6.1 0.00 0.00 0.00 76 1017.1
20260510095202 54 214 0.9 6.1 0.00 0.00 0.00 75 1017.1
20260510094703 54 59 0.9 3.5 0.00 0.00 0.00 74 1017.2
20260510094202 54 265 1.7 7.0 0.00 0.00 0.00 72 1017.1
20260510093701 54 271 1.7 8.7 0.00 0.00 0.00 73 1017.1
20260510093203 53 277 1.7 8.7 0.00 0.00 0.00 74 1017.2
20260510092702 53 5 1.7 5.2 0.00 0.00 0.00 76 1017.2
20260510092202 53 281 0.9 4.3 0.00 0.00 0.00 78 1017.3
20260510091702 52 227 0.9 4.3 0.00 0.00 0.00 79 1017.3
20260510091205 52 14 1.7 4.3 0.00 0.00 0.00 79 1017.4
20260510090659 52 315 0.9 3.5 0.00 0.00 0.00 79 1017.4
20260510090153 52 165 0.9 4.3 0.00 0.00 0.00 79 1017.4
20260510085649 52 338 0.9 4.3 0.00 0.00 0.00 79 1017.5
20260510085142 52 117 1.7 4.3 0.00 0.00 0.00 79 1017.5
20260510084645 52 274 0.9 4.3 0.00 0.00 0.00 79 1017.5
20260510084143 52 22 0.9 9.6 0.00 0.00 0.00 80 1017.5
20260510083923 52 11 0.9 9.6 0.00 0.00 0.00 80 1017.5
20260510083143 52 25 0.9 5.2 0.00 0.00 0.00 80 1017.5
20260510082641 52 234 1.7 5.2 0.00 0.00 0.00 79 1017.5
20260510082143 52 290 0.9 5.2 0.00 0.00 0.00 80 1017.5
20260510081640 52 246 0.9 5.2 0.00 0.00 0.00 81 1017.6
20260510081141 51 269 0.9 5.2 0.00 0.00 0.00 82 1017.6
20260510080639 51 290 0.9 4.3 0.00 0.00 0.00 81 1017.6
20260510080140 51 296 0.9 4.3 0.00 0.00 0.00 81 1017.6
20260510075920 51 283 1.7 4.3 0.00 0.00 0.00 82 1017.6
20260510075141 51 48 1.7 4.3 0.00 0.00 0.00 82 1017.6
20260510074643 51 223 1.7 4.3 0.00 0.00 0.00 82 1017.5
20260510074139 51 273 0.9 4.3 0.00 0.00 0.00 83 1017.6
20260510073634 51 263 0.9 4.3 0.00 0.00 0.00 83 1017.6
20260510073135 51 257 0.9 4.3 0.00 0.00 0.00 83 1017.6
20260510072634 51 39 1.7 7.0 0.00 0.00 0.00 83 1017.6
20260510072415 50 52 0.9 7.0 0.00 0.00 0.00 84 1017.6
20260510071916 50 298 0.9 4.3 0.00 0.00 0.00 84 1017.6
20260510071135 50 59 1.7 4.3 0.00 0.00 0.00 85 1017.5
20260510070634 50 355 1.7 7.8 0.00 0.00 0.00 85 1017.5
20260510070135 50 0 1.7 10.4 0.00 0.00 0.00 85 1017.4
20260510065701 50 273 0.9 5.2 0.00 0.00 0.00 86 1017.4
20260510065652 50 26 0.9 10.4 0.00 0.00 0.00 86 1017.4
20260510064634 50 281 1.7 5.2 0.00 0.00 0.00 87 1017.2
20260510064419 50 276 1.7 5.2 0.00 0.00 0.00 87 1017.2
20260510063634 50 26 0.9 3.5 0.00 0.00 0.00 87 1017.2
20260510063134 49 16 0.9 3.5 0.00 0.00 0.00 87 1017.2
20260510062635 49 332 0.9 3.5 0.00 0.00 0.00 88 1017.2
20260510062133 49 290 0.9 3.5 0.00 0.00 0.00 88 1017.2
20260510061634 49 315 0.9 3.5 0.00 0.00 0.00 88 1017.2
20260510061133 49 342 0.9 2.6 0.00 0.00 0.00 88 1017.2
20260510060635 49 32 0.9 2.6 0.00 0.00 0.00 88 1017.2
20260510060417 49 250 0.9 3.5 0.00 0.00 0.00 88 1017.1
20260510055633 49 253 0.9 3.5 0.00 0.00 0.00 89 1017.2
20260510055132 49 262 0.9 3.5 0.00 0.00 0.00 89 1017.1
20260510054631 49 254 0.9 4.3 0.00 0.00 0.00 89 1017.2
20260510054133 49 250 0.9 4.3 0.00 0.00 0.00 89 1017.1
20260510053913 49 355 0.9 3.5 0.00 0.00 0.00 90 1017.1
20260510053132 48 235 0.9 3.5 0.00 0.00 0.00 90 1017.1
20260510052635 48 265 0.9 3.5 0.00 0.00 0.00 90 1017.2
20260510052134 48 284 0.9 3.5 0.00 0.00 0.00 90 1017.2
20260510051631 48 61 0.9 4.3 0.00 0.00 0.00 91 1017.2
20260510051130 48 327 0.9 4.3 0.00 0.00 0.00 91 1017.2
20260510050630 48 355 0.9 4.3 0.00 0.00 0.00 91 1017.2
20260510050411 48 74 0.0 4.3 0.00 0.00 0.00 91 1017.2
20260510045618 48 340 0.0 1.7 0.00 0.00 0.00 91 1017.2
20260510045112 48 194 0.9 3.5 0.00 0.00 0.00 91 1017.2
20260510044613 48 198 0.9 3.5 0.00 0.00 0.00 91 1017.2
20260510044113 48 190 0.0 4.3 0.00 0.00 0.00 91 1017.2
20260510043613 48 307 0.9 4.3 0.00 0.00 0.00 91 1017.3
20260510043113 47 245 0.9 3.5 0.00 0.00 0.00 91 1017.2
20260510042610 47 217 0.9 3.5 0.00 0.00 0.00 91 1017.2
20260510042109 47 16 0.9 1.7 0.00 0.00 0.00 91 1017.3
20260510041605 47 219 0.0 2.6 0.00 0.00 0.00 91 1017.3
20260510041104 47 26 0.9 5.2 0.00 0.00 0.00 91 1017.2
20260510040605 47 24 0.9 5.2 0.00 0.00 0.00 91 1017.2
20260510035634 47 222 0.9 2.6 0.00 0.00 0.00 90 1017.3
20260510035623 47 202 0.9 6.1 0.00 0.00 0.00 91 1017.2
20260510034603 48 59 0.9 2.6 0.00 0.00 0.00 90 1017.3
20260510034105 48 224 0.9 2.6 0.00 0.00 0.00 90 1017.2
20260510033603 48 19 0.9 1.7 0.00 0.00 0.00 90 1017.3
20260510033102 48 263 0.9 2.6 0.00 0.00 0.00 90 1017.3
20260510032844 48 19 0.9 2.6 0.00 0.00 0.00 90 1017.4
20260510032103 48 277 0.9 3.5 0.00 0.00 0.00 90 1017.5
20260510031603 48 180 0.9 3.5 0.00 0.00 0.00 90 1017.4
20260510031105 48 74 0.0 2.6 0.00 0.00 0.00 90 1017.5
20260510030603 48 279 0.0 1.7 0.00 0.00 0.00 90 1017.5
20260510030105 48 78 0.9 3.5 0.00 0.00 0.00 90 1017.5
20260510025602 48 182 0.9 3.5 0.00 0.00 0.00 90 1017.6
20260510025103 48 0 0.9 3.5 0.00 0.00 0.00 89 1017.6
20260510024603 48 355 0.9 3.5 0.00 0.00 0.00 89 1017.6
20260510024102 48 79 0.9 3.5 0.00 0.00 0.00 89 1017.6
20260510023602 48 19 0.9 3.5 0.00 0.00 0.00 89 1017.6
20260510023342 48 348 0.0 2.6 0.00 0.00 0.00 89 1017.7
20260510022602 48 47 0.0 2.6 0.00 0.00 0.00 89 1017.7
20260510022123 48 211 0.9 2.6 0.00 0.00 0.00 89 1017.6
20260510022117 48 192 0.0 2.6 0.00 0.00 0.00 89 1017.7
20260510021338 48 322 0.9 2.6 0.00 0.00 0.00 89 1017.6
20260510020605 48 346 0.9 3.5 0.00 0.00 0.00 89 1017.8
20260510020343 48 340 0.9 3.5 0.00 0.00 0.00 90 1017.8
20260510015842 48 61 0.0 2.6 0.00 0.00 0.00 90 1017.8
20260510015344 48 242 0.0 2.6 0.00 0.00 0.00 90 1017.8
20260510014603 48 113 0.0 1.7 0.00 0.00 0.00 90 1017.8
20260510014105 48 275 0.0 2.6 0.00 0.00 0.00 90 1017.7
20260510013603 48 289 0.0 2.6 0.00 0.00 0.00 90 1017.7
20260510013102 48 265 0.0 1.7 0.00 0.00 0.00 90 1017.6
20260510012602 48 266 0.0 1.7 0.00 0.00 0.00 90 1017.7
20260510012104 48 259 0.0 3.5 0.00 0.00 0.00 90 1017.6
20260510011602 48 208 0.0 3.5 0.00 0.00 0.00 89 1017.5
20260510011103 48 11 0.0 1.7 0.00 0.00 0.00 89 1017.5
20260510010824 49 297 0.0 1.7 0.00 0.00 0.00 89 1017.4
20260510005603 49 312 0.0 1.7 0.00 0.00 0.00 89 1017.6
20260510005103 49 326 0.0 1.7 0.00 0.00 0.00 89 1017.7
20260510004604 49 70 0.0 1.7 0.00 0.00 0.00 89 1017.8
20260510004105 49 65 0.0 1.7 0.00 0.00 0.00 88 1017.7
20260510003603 49 215 0.0 1.7 0.00 0.00 0.00 88 1017.8
20260510003103 49 348 0.0 1.7 0.00 0.00 0.00 88 1017.8
20260510002606 49 342 0.0 1.7 0.00 0.00 0.00 87 1017.7
20260510002103 49 220 0.0 1.7 0.00 0.00 0.00 87 1017.7
20260510001656 49 236 0.0 1.7 0.00 0.00 0.00 85 1017.8
20260510001642 49 78 0.0 2.6 0.00 0.00 0.00 86 1017.8
20260510001123 49 221 0.9 2.6 0.00 0.00 0.00 86 1017.8
20260509235601 50 127 0.0 1.7 0.00 0.00 0.00 83 1017.9
20260509235101 50 263 0.0 1.7 0.00 0.00 0.00 82 1017.9
20260509234600 50 309 0.0 2.6 0.00 0.00 0.00 81 1017.9
20260509234059 50 221 0.0 2.6 0.00 0.00 0.00 79 1017.9
20260509233559 50 245 0.0 1.7 0.00 0.00 0.00 77 1017.9
20260509233058 50 293 0.0 1.7 0.00 0.00 0.00 74 1017.8
20260509232554 50 176 0.0 2.6 0.00 0.00 0.00 72 1017.8
20260509232055 51 175 0.0 2.6 0.00 0.00 0.00 70 1017.8
20260509231554 51 226 0.0 1.7 0.00 0.00 0.00 69 1017.9
20260509231056 51 350 0.0 1.7 0.00 0.00 0.00 69 1017.9
20260509230556 51 312 0.0 1.7 0.00 0.00 0.00 69 1017.9
20260509230330 51 171 0.0 1.7 0.00 0.00 0.00 67 1017.8
20260509225823 52 200 0.0 1.7 0.00 0.00 0.00 66 1017.8
20260509225045 52 288 0.0 1.7 0.00 0.00 0.00 66 1017.7
20260509224545 52 155 0.0 1.7 0.00 0.00 0.00 66 1017.8
20260509224045 53 48 0.0 1.7 0.00 0.00 0.00 66 1017.8
20260509223544 53 319 0.0 0.9 0.00 0.00 0.00 66 1017.8
20260509223106 53 319 0.0 1.7 0.00 0.00 0.00 65 1017.9
20260509223058 53 319 0.0 0.9 0.00 0.00 0.00 66 1017.9
20260509222041 53 319 0.0 1.7 0.00 0.00 0.00 65 1017.9
20260509221545 53 300 0.0 0.9 0.00 0.00 0.00 65 1017.9
20260509221317 53 300 0.0 0.9 0.00 0.00 0.00 65 1017.8
20260509220819 53 300 0.0 1.7 0.00 0.00 0.00 65 1017.8
20260509220039 53 300 0.0 1.7 0.00 0.00 0.00 64 1017.6
20260509215539 53 11 0.0 1.7 0.00 0.00 0.00 63 1017.4
20260509215039 54 22 0.0 0.9 0.00 0.00 0.00 63 1017.3
20260509214539 54 22 0.0 0.9 0.00 0.00 0.00 62 1017.3
20260509214040 54 22 0.0 0.9 0.00 0.00 0.00 62 1017.3
20260509213816 54 22 0.0 0.0 0.00 0.00 0.00 62 1017.3
20260509213039 54 22 0.0 0.9 0.00 0.00 0.00 61 1017.3
20260509212538 54 22 0.0 0.9 0.00 0.00 0.00 60 1017.2
20260509212039 54 22 0.0 0.9 0.00 0.00 0.00 60 1017.2
20260509211539 54 0 0.0 0.0 0.00 0.00 0.00 60 1017.2
20260509211039 55 0 0.0 0.9 0.00 0.00 0.00 60 1017.2
20260509210538 55 0 0.0 0.9 0.00 0.00 0.00 59 1017.1
20260509210039 55 0 0.0 0.9 0.00 0.00 0.00 59 1017.1
20260509205537 55 0 0.0 0.9 0.00 0.00 0.00 58 1017.1
20260509205035 55 0 0.0 0.9 0.00 0.00 0.00 58 1017.1
20260509204532 56 0 0.0 0.9 0.00 0.00 0.00 58 1017.1
20260509204032 56 0 0.0 1.7 0.00 0.00 0.00 58 1017.1
20260509203532 56 0 0.0 1.7 0.00 0.00 0.00 58 1017.0
20260509203032 56 0 0.0 0.9 0.00 0.00 0.00 58 1016.9
20260509202532 56 0 0.0 0.0 0.00 0.00 0.00 58 1016.8
20260509202031 57 0 0.0 0.0 0.00 0.00 0.00 58 1016.8
20260509201531 57 0 0.0 0.0 0.00 0.00 0.00 57 1016.8
20260509201034 57 0 0.0 0.0 0.00 0.00 0.00 56 1016.8
20260509200528 58 0 0.0 0.9 0.00 0.00 0.00 56 1016.7
20260509200024 58 0 0.0 1.7 0.00 0.00 0.00 55 1016.6
20260509195518 58 0 0.0 1.7 0.00 0.00 0.00 54 1016.6
20260509195011 58 355 0.0 1.7 0.00 0.00 0.00 53 1016.6
20260509194512 59 0 0.0 0.9 0.00 0.00 0.00 53 1016.6
20260509194011 59 0 0.0 1.7 0.00 0.00 0.00 52 1016.6
20260509193507 60 0 0.0 2.6 0.00 0.00 0.00 52 1016.5
20260509193003 60 5 0.0 2.6 0.00 0.00 0.00 51 1016.5
20260509192503 60 61 0.0 1.7 0.00 0.00 0.00 51 1016.5
20260509192002 60 73 0.0 1.7 0.00 0.00 0.00 50 1016.5
20260509191746 61 56 0.0 1.7 0.00 0.00 0.00 50 1016.5
20260509191003 61 338 0.0 2.6 0.00 0.00 0.00 49 1016.4
20260509190505 61 107 0.0 2.6 0.00 0.00 0.00 49 1016.3
20260509190006 61 128 0.9 3.5 0.00 0.00 0.00 48 1016.2
20260509185503 61 350 0.9 4.3 0.00 0.00 0.00 48 1016.2
20260509185004 62 123 0.9 4.3 0.00 0.00 0.00 48 1016.1
20260509184503 62 47 0.9 3.5 0.00 0.00 0.00 48 1016.2
20260509184002 62 139 0.9 3.5 0.00 0.00 0.00 48 1016.1
20260509183503 62 196 0.9 3.5 0.00 0.00 0.00 48 1016.0
20260509183246 62 90 0.9 2.6 0.00 0.00 0.00 48 1015.9
20260509182504 63 49 0.0 3.5 0.00 0.00 0.00 48 1015.9
20260509181959 63 330 0.9 3.5 0.00 0.00 0.00 48 1015.9
20260509181454 63 197 0.9 2.6 0.00 0.00 0.00 47 1015.8
20260509180946 63 333 0.9 5.2 0.00 0.00 0.00 47 1015.8
20260509180442 63 147 0.9 5.2 0.00 0.00 0.00 47 1015.8
20260509175933 64 137 0.9 3.5 0.00 0.00 0.00 47 1015.7
20260509175431 64 355 0.9 3.5 0.00 0.00 0.00 48 1015.7
20260509174931 64 81 0.9 4.3 0.00 0.00 0.00 47 1015.7
20260509174432 64 32 0.9 4.3 0.00 0.00 0.00 46 1015.7
20260509173930 65 151 0.9 7.0 0.00 0.00 0.00 46 1015.8
20260509173430 65 137 0.9 7.0 0.00 0.00 0.00 46 1015.7
20260509172930 65 48 0.9 5.2 0.00 0.00 0.00 47 1015.7
20260509172433 65 22 1.7 4.3 0.00 0.00 0.00 46 1015.7
20260509171931 65 143 1.7 6.1 0.00 0.00 0.00 46 1015.7
20260509171711 66 86 0.9 6.1 0.00 0.00 0.00 46 1015.8
20260509171215 65 211 0.9 4.3 0.00 0.00 0.00 47 1015.8
20260509170433 65 30 0.9 5.2 0.00 0.00 0.00 46 1015.9
20260509165933 65 178 0.9 5.2 0.00 0.00 0.00 47 1015.9
20260509165432 65 336 0.9 4.3 0.00 0.00 0.00 47 1015.9
20260509165209 66 197 0.9 2.6 0.00 0.00 0.00 46 1015.8
20260509164714 66 0 0.9 2.6 0.00 0.00 0.00 47 1015.8
20260509163932 66 309 0.9 2.6 0.00 0.00 0.00 47 1015.8
20260509163714 66 324 0.9 4.3 0.00 0.00 0.00 46 1015.8
20260509163211 67 23 0.9 4.3 0.00 0.00 0.00 45 1015.9
20260509162431 67 59 0.9 3.5 0.00 0.00 0.00 45 1015.9
20260509161931 67 232 0.9 3.5 0.00 0.00 0.00 45 1015.9
20260509161435 67 259 0.9 3.5 0.00 0.00 0.00 44 1015.9
20260509161210 68 231 0.9 6.1 0.00 0.00 0.00 44 1015.9
20260509160430 68 91 0.9 6.1 0.00 0.00 0.00 44 1015.9
20260509155930 68 327 0.9 5.2 0.00 0.00 0.00 42 1015.8
20260509155710 69 287 0.9 5.2 0.00 0.00 0.00 42 1015.8
20260509154928 69 212 0.0 3.5 0.00 0.00 0.00 42 1015.8
20260509154452 69 136 0.9 3.5 0.00 0.00 0.00 41 1015.8
20260509154443 69 24 0.9 3.5 0.00 0.00 0.00 42 1015.8
20260509153447 70 63 0.9 3.5 0.00 0.00 0.00 40 1015.7
20260509153439 69 316 0.9 3.5 0.00 0.00 0.00 41 1015.9
20260509152424 70 98 0.9 3.5 0.00 0.00 0.00 41 1015.8
20260509151922 70 81 0.9 3.5 0.00 0.00 0.00 40 1015.8
20260509151423 70 80 0.9 2.6 0.00 0.00 0.00 38 1015.7
20260509150922 71 139 0.9 2.6 0.00 0.00 0.00 39 1015.7
20260509150421 71 109 0.9 3.5 0.00 0.00 0.00 40 1015.7
20260509145921 71 9 0.9 3.5 0.00 0.00 0.00 39 1015.5
20260509145701 71 217 0.0 2.6 0.00 0.00 0.00 39 1015.5
20260509144919 72 331 0.9 7.0 0.00 0.00 0.00 38 1015.4
20260509144418 72 284 0.9 7.0 0.00 0.00 0.00 38 1015.5
20260509143915 72 172 0.9 5.2 0.00 0.00 0.00 39 1015.4
20260509143656 72 63 0.9 2.6 0.00 0.00 0.00 39 1015.4
20260509142915 73 140 0.9 3.5 0.00 0.00 0.00 38 1015.4
20260509142415 73 228 0.9 5.2 0.00 0.00 0.00 39 1015.4
20260509141916 73 5 0.9 5.2 0.00 0.00 0.00 39 1015.4
20260509141414 73 82 0.9 4.3 0.00 0.00 0.00 38 1015.4
20260509140916 73 215 0.9 4.3 0.00 0.00 0.00 39 1015.6